Regional Weather Roundup
Issued by NWS

Home | Current Version | Previous Version | Text Only | Print | Product List | Glossary Off
Versions: 1 2 3 4 5 6 7 8 9 10 11 12 13 14 15 16 17 18 19 20 21 22 23 24 25 26 27 28 29 30 31 32 33 34 35 36 37 38 39 40 41 42 43 44 45 46 47 48 49 50

000
ASUS43 KBIS 221210
RWRND
NORTH DAKOTA REGIONAL WEATHER ROUNDUP
NATIONAL WEATHER SERVICE EASTERN NORTH DAKOTA/GRAND FORKS ND
700 AM CDT SUN APR 22 2018

  NOTE: "FAIR" INDICATES FEW OR NO CLOUDS BELOW 12,000 FEET WITH NO
  SIGNIFICANT WEATHER AND/OR OBSTRUCTIONS TO VISIBILITY.

NDZ001>003-009>011-017-221300-
...NORTHWEST NORTH DAKOTA...

CITY           SKY/WX    TMP DP  RH WIND       PRES   REMARKS
WILLISTON      MOCLDY    39  28  64 CALM      30.11R
6HR MIN TEMP:  36; 6HR MAX TEMP:  52;

MINOT          FAIR      41  35  79 SW15      30.08R
MINOT AFB      FAIR      39  36  88 SW13      30.06R WCI  32
6HR MIN TEMP:  39; 6HR MAX TEMP:  46;

$$

NDZ018>021-031>035-040>046-221300-
...SOUTHWEST NORTH DAKOTA...

CITY           SKY/WX    TMP DP  RH WIND       PRES   REMARKS
BISMARCK       FAIR      32  31  96 NW3       30.17F
DICKINSON      FAIR      31  30  96 S8        30.09S WCI  23
GARRISON         N/A     35  33  92 S7        30.11S WCI  29
HETTINGER      FAIR      29  27  92 CALM      30.14S
$$

NDZ004>008-012>016-024-026-027-054-221300-
...NORTHEAST NORTH DAKOTA...

CITY           SKY/WX    TMP DP  RH WIND       PRES   REMARKS
GRAND FORKS    MOCLDY    34  34 100 S8        30.22R WCI  27
GRAND FORKS AF FAIR      37  34  89 SW6       30.21R WCI  32
DEVILS LAKE    FAIR      38  31  76 S13       30.16F WCI  30
$$

NDZ022-023-025-028>030-036>039-047>053-221300-
...SOUTHEAST NORTH DAKOTA...

CITY           SKY/WX    TMP DP  RH WIND       PRES   REMARKS
JAMESTOWN      FAIR      35  32  88 S12       30.20R WCI  27
FARGO          FAIR      37  33  85 S10       30.26F WCI  30
WAHPETON       FAIR      34  32  93 SE7       30.30S WCI  28
$$




USA.gov is the U.S. government's official web portal to all federal, state and local government web resources and services.